IRIDIUM 146 (43254 NORAD) Tracking and Keplerian Element Data

This shows tracking and keplerian element data for the satellite.

Feedback or suggestion? Click here.




ElementValue
Catalog43254
NameIRIDIUM 146
Epoch Orbit419
Epoch Day118.45322287
Epoch Year2018
RAAN92.34
Inclination86.3944
Eccentricity0.0001899
Argument of Perigee101.4722
Mean Anonmoly258.6687
Mean Motion14.34215233
Decay Rate3.7E-07
L11 43254U 18030F 18118.45322287 .00000037 00000-0 60427-5 0 9996
L22 43254 86.3944 92.3400 0001899 101.4722 258.6687 14.34215233 4190

Live tracking and technical data element details for IRIDIUM 146 (NORAD 43254). IRIDIUM 146 can be tracked NOW for your location showing map with azimuth and elevation plus other details from your city location.

Track the satellite on the map from your city or location and see movement details for azimuth, elevation, latitude, longitude, range, height, and movement on the map or in text.







IsCatalogInMostPopularTable: catalog: 43254, numindb: 63
Update: records affected: 1



GetName: 43254 IRIDIUM 146

Hit Count: updated at: Sat, 17 Nov 2018 02:29:56 GMT